FENGYUN 1C DEB, 32324

Orbit data source: Space-Track

FENGYUN 1C DEB, 32324 is space debris in SSO originally from a launch on Mon, 10 May 1999 UTC launched from the Taiyaun Space Center, China (TSC). Fengyun 1C debris stems from the Chinese weather satellite Fengyun-1C, which was intentionally destroyed by a Chinese anti-satellite missile in 2007. This event dramatically increased the amount of space debris, with thousands of trackable fragments posing hazards to satellites and human spaceflight. The Fengyun 1C debris cloud has become a focal point in discussions about space sustainability and the need for international regulations to prevent the creation of new debris.

Loading next visibility...
Identifier
32324, 1999-025CXR
Orbit
SSO
Country
Flag of CNCN / PRC
Related business
Manufacturer
Unknown
Mission
Spacecraft
Bus & Motor
Unknown
Mass
Unknown
Launch date (UTC)
1999-05-10 (27 years ago)
Launch vehicle
Unknown
Launch site
Taiyaun Space Center, China (TSC)
Object type
Payload
Rocket body
Debris
Shape & HBR
Unknown shape, 0.1 m
Radar Cross Section
Small (<0.1 m²)

Expand to show TLE details & history
Last TLE update: 5 days ago

TLE from 5 days ago
0 FENGYUN 1C DEB
1 32324U 99025CXR 26250.56754679  .00000447  00000-0  28043-3 0  9998
2 32324  99.5506  13.0438 0049568   2.7946 357.3490 14.09581816677856
Epoch: 2026-09-07T13:37Z
TLE epoch observation values (Epoch: 2026-09-07T13:37:16.042Z)
Latitude
-0.00001°
Longitude
-177.91949°
Altitude
827.825 km
Speed
7.457 km/s
True Right ascension
00h 52m 10s
True Declination
0° 00' 00"
Sunlit
Object was in full shadow at epoch
Visualization orbit readout
Latitude
Unknown
Longitude
Unknown
Altitude
Unknown
Speed
Unknown
Apparent Right ascension
Unknown
Apparent Declination
Unknown
Sunlit
N/A
Visualization observer readout
Local Sidereal Time
16:51:58
Azimuth
Unknown
Elevation
Unknown
Doppler factor
Unknown
Orbital elements
Apogee altitude
893.886 km
Perigee altitude
822.149 km
Semi-major axis
7,236.154 km
Eccentricity
0.00496
Inclination
99.5506°
RAAN
13.0438°
Arg. of periapsis
2.7946°
True anomaly
357.32256°
Mean anomaly
357.349°
Eccentric anomaly
357.3358°
Mean motion
3.52599 °/min
Orbital period
102.1 mins
BSTAR
0.00028043
Loading maneuver chart data...
Computing Atmospheric mass density...

Documentation

Showing up to 5 results
|